SL-14 DEB, 45311

Orbit data source: Space-Track

SL-14 DEB, 45311 is space debris in LEO originally from a launch on Thu, 15 Aug 1991 UTC launched from the Plesetsk Missile And Space Complex (PKMTR). Debris objects in space refer to the collection of defunct objects orbiting the Earth. Examples of debris include non-operational satellites, rocket bodies, and fragments generated from explosions, collisions, or faulty payload assembly.

Loading next visibility...
Identifier
45311, 1991-056AZ
Orbit
LEO
Country
Flag of CISCIS
Related business
Manufacturer
Unknown
Mission
Spacecraft
Bus & Motor
Unknown
Mass
Unknown
Launch date (UTC)
1991-08-15 (34 years ago)
Launch vehicle
Unknown
Launch site
Plesetsk Missile And Space Complex (PKMTR)
Object type
Payload
Rocket body
Debris
Shape & HBR
Unknown shape, 0.1 m
Radar Cross Section
Small (<0.1 m²)

Expand to show TLE details & history
Last TLE update: 12 hours ago

TLE from 12 hours ago
0 SL-14 DEB
1 45311U 91056AZ  25292.29238239  .00000172  00000-0  40490-3 0  9993
2 45311  82.5473 304.5968 0017199 355.9806   4.1176 13.18778343271850
Epoch: 2025-10-19T07:01Z
TLE epoch observation values (Epoch: 2025-10-19T07:01:01.838Z)
Latitude
-0.00006°
Longitude
171.328°
Altitude
1,179.216 km
Speed
7.27 km/s
True Right ascension
20h 18m 23s
True Declination
0° 00' 00"
Sunlit
Object was in daylight at epoch
Visualization orbit readout
Latitude
Unknown
Longitude
Unknown
Altitude
Unknown
Speed
Unknown
Apparent Right ascension
Unknown
Apparent Declination
Unknown
Sunlit
N/A
Visualization observer readout
Local Sidereal Time
13:42:46
Azimuth
Unknown
Elevation
Unknown
Doppler factor
Unknown
Orbital elements
Apogee altitude
1,199.643 km
Perigee altitude
1,173.622 km
Semi-major axis
7,564.769 km
Eccentricity
0.00172
Inclination
82.5473°
RAAN
304.5968°
Arg. of periapsis
355.9806°
True anomaly
4.13178°
Mean anomaly
4.1176°
Eccentric anomaly
4.12469°
Mean motion
3.29875 °/min
Orbital period
109.13 mins
BSTAR
0.0004049
Loading maneuver chart data...
Computing Atmospheric mass density...
Loading historical data...
Loading historical data...
Loading historical data...
Loading historical data...
Loading historical data...
Loading historical data...
Loading historical data...

Documentation

Showing up to 5 results
|